HULIANWANG DIGUI-83

导读

HULIANWANG DIGUI-83是中国发射的低轨卫星,于北京时间2025年9月27日成功进入预定轨道。它是中国低轨卫星互联网星座组网进程中的重要组成部分,旨在填补全球网络覆盖盲区,为全球用户提供全天候、大容量、低延迟的宽带互联网通信服务,进一步推动中国空间基础设施建设,服务全球数字互联互通需求。

基本信息
目录编号:
65818
目录名称:
HULIANWANG DIGUI-83
国际标识:
2025-220B
轨道中心:
EARTH
卫星名称:
HULIANWANG DIGUI-83
卫星全名:
HULIANWANG DIGUI-83
卫星状态:
在轨 (已飞行258 天)
发射日期:
2025-09-27 UTC
国别 :
中国 (CN)
星等 :
--
轨道信息
数据来源 国际轨道数据 AOE轨道数据
星历时间 2026-06-12T12:05:39+0800
15小时前
查看轨道信息
2026-06-07T00:00:00+0800
6天前
查看轨道信息
半长轴 7546.067km 7546.049km
偏心率 0.000132 0.0001141
轨道倾角 86.500° 86.500°
近地点辐角 89.334° 120.704°
升交点赤经 45.606° 47.463°
平近点角 270.795° 292.373°
近地点 1166.933km 1167.05km
远地点 1168.927km 1168.774km
周期 108.728分钟 108.727分钟
每日圈数 13.24408 13.244128
详细信息
使用方式:
暂无
2D轨道图
3D轨道图
轨道高度分析图
轨道倾角分析图
轨道综合分析图
查看轨道综合分析图